User: anonymous   Login
Location: El Mouella
(16.4949°N, 9.1594°W)
Time: 15:52:55
(UTC+00:00)
Language:

Cosmos 1782 Rocket - Orbit

View from above orbital plane
View from above orbital plane
View from above satellite
View from above satellite

Ground track
Ground track

The orbit data is extracted from the following two-line orbital elements,

1 16987U 86074B   20225.20609123  .00000056  00000-0  38459-5 0  9995
2 16987  82.5181 311.4553 0019645  67.3305 353.4819 14.83076074829214
Epoch (UTC): 12 August 2020 04:56:46
Eccentricity: 0.0019645
inclination: 82.5181°
perigee height: 606 km
apogee height: 633 km
right ascension of ascending node: 311.4553°
argument of perigee: 67.3305°
revolutions per day: 14.83076074
mean anomaly at epoch: 353.4819°
orbit number at epoch: 82921

The dashed part of the orbit path shows where the satellite is in the earth's shadow,  

DLR